Flag for China Weather past 2 weeks in Lanzhou, Gansu, China

Now
14 °F

Clear.


Feels Like: 14 °F
Forecast: 10 / 44 °F
Wind: 1 mph from North

Location: Lanzhou / Zhongchuan

Current Time: Mar 5, 2015 at 9:11:35 AM

Latest Report: Mar 5, 2015 at 8:00 AM


Visibility: 4 mi

Pressure: 30.01 "Hg

Humidity: 79%

Dew point: 9 °F

Location of LanzhouLocation

Historic Weather in Lanzhou — Graph

°F

Lanzhou temperature yesterday

Maximum temperature yesterday: 32 °F (at 1:00 PM)
Minimum temperature yesterday: 19 °F (at 11:00 PM)
Average temperature yesterday: 26 °F

Past Weeks' High & Low Weather Summary

 TemperatureHumidityPressure
High50 °F (Feb 19, 3:00 PM)100% (Feb 24, 8:00 PM)30.36 "Hg (Feb 24, 8:00 PM)
Low12 °F (Mar 3, 5:00 AM)20% (Feb 18, 11:00 AM)29.68 "Hg (Feb 26, 4:00 PM)
Average29 °F53%30.01 "Hg
* Reported Feb 18 8:00 AM — Mar 5 8:00 AM, Lanzhou, Weather by CustomWeather, © 2015

Note: Actual official high and low records may vary slightly from our data, if they occured in-between our weather recording intervals... More about our weather records

Advertising

Lanzhou weather history for previous 24 hours

 ConditionsComfort  
Time TempWeatherWind HumidityBarometerVisibility
8:00 AM
Thu, Mar 5
14 °FClear.1 mph79%30.01 "Hg4 mi
6:00 AM14 °FClear.6 mph85%30.01 "Hg10 mi
5:00 AM14 °FClear.3 mph79%29.98 "Hg10 mi
4:00 AM14 °FClear.3 mph85%30.01 "Hg10 mi
3:00 AM14 °FClear.3 mph85%30.01 "Hg10 mi
2:00 AM16 °FClear.1 mph79%30.01 "Hg10 mi
1:00 AM16 °FPassing clouds.3 mph79%30.04 "HgN/A
12:00 AM18 °FPassing clouds.3 mph79%30.07 "HgN/A
11:00 PM
Wed, Mar 4
19 °FPassing clouds.1 mph73%30.07 "HgN/A
10:00 PM23 °FPassing clouds.1 mph63%30.07 "HgN/A
9:00 PM23 °FPassing clouds.No wind68%30.04 "HgN/A
8:00 PM23 °FLight snow. Partly sunny.1 mph80%30.04 "HgN/A
6:00 PM27 °FPartly sunny.10 mph69%29.95 "HgN/A
5:00 PM30 °FOvercast.10 mph43%29.92 "HgN/A
4:00 PM30 °FPartly sunny.6 mph40%29.92 "Hg5 mi
3:00 PM30 °FClear.6 mph40%29.92 "Hg5 mi
2:00 PM30 °FClear.8 mph40%29.92 "Hg5 mi
1:00 PM32 °FClear.8 mph32%29.95 "Hg5 mi
12:00 PM30 °FClear.6 mph31%29.95 "Hg5 mi
11:00 AM28 °FPassing clouds.8 mph34%29.95 "HgN/A
10:00 AM28 °FPassing clouds.10 mph34%29.98 "HgN/A
9:00 AM27 °FSunny.6 mph36%29.95 "Hg10 mi
Weather by CustomWeather, © 2015

See weather overviewHow to use our weather pages